Island Lake, Manitoba

3:34 PM CST on February 27, 2017 (GMT -0600)
Island Lake

Weather History for CYIV - May, 2013

Change the Weather History Date:

Sunday, May 19, 2013

  Actual Average Record
Temperature  
Mean Temperature 51 °F -  
Max Temperature 61 °F 61 °F 82 °F (2011)
Min Temperature 41 °F 42 °F 23 °F (2007)
Degree Days  
Heating Degree Days 14    
Growing Degree Days 1 (Base 50)    
Moisture  
Dew Point 40 °F    
Average Humidity 69    
Maximum Humidity 100    
Minimum Humidity 25    
Precipitation  
Precipitation 0.00 in -4.75 in - ()
Sea Level Pressure  
Sea Level Pressure 30.16 in    
Wind  
Wind Speed 6 mph ()    
Max Wind Speed 13 mph    
Max Gust Speed 20 mph    
Visibility 11.3 miles    
Events      
Averages and records for this station are not official NWS values.
T = Trace of Precipitation, MM = Missing Value Source: Averaged Metar Reports

Daily Weather History Graph

Daily Weather History Graph

Search for Another Location

Airport or City:

Trip Planner

Search our weather history database for the weather conditions in past years. The results will help you decide how hot, cold, wet, or windy it might be!

Date:

Astronomy

May. 19, 2013 Rise Set
Actual Time 5:09 AM CDT 9:21 PM CDT
Civil Twilight 4:23 AM CDT 10:08 PM CDT
Nautical Twilight 3:14 AM CDT 11:18 PM CDT
Astronomical Twilight 1:47 AM CDT 12:42 AM CDT
Moon 2:35 PM CDT (5/19) 2:29 AM CDT (5/19)
Length of Visible Light 17h 45m
Length of Day
16h 11m
Waxing Gibbous, 65% of the Moon is Illuminated
May 19
Waxing Gibbous
May 24
Full
May 31
Last Quarter
Jun 8
New
Jun 16
First Quarter

Hourly Weather History & Observations

Time (CDT) Temp. Windchill Dew Point Humidity Pressure Visibility Wind Dir Wind Speed Gust Speed Precip Events Conditions
12:00 AM 55.4 °F - 46.4 °F 72% 30.03 in 15.0 mi NE 6.9 mph - N/A   Mostly Cloudy
1:00 AM 53 °F - 47 °F 74% 30.04 in 15 mi East 9.2 mph - -   Mostly Cloudy
1:00 AM 53.6 °F - 46.4 °F 77% 30.04 in 15.0 mi ENE 9.2 mph - N/A   Mostly Cloudy
2:00 AM 51.8 °F - 48.2 °F 88% 30.07 in 15.0 mi NNE 5.8 mph - N/A   Scattered Clouds
3:00 AM 50.0 °F - 48.2 °F 94% 30.09 in 15.0 mi NE 6.9 mph - N/A   Overcast
4:00 AM 48.2 °F - 48.2 °F 100% 30.09 in 15.0 mi NNE 5.8 mph - N/A   Overcast
4:48 AM - - - N/A% - 4.0 mi NNE 5.8 mph - N/A   Overcast
5:00 AM 46.4 °F 44.3 °F 46.4 °F 100% 30.10 in 3.0 mi NE 4.6 mph - N/A   Overcast
6:00 AM 44.6 °F 42.2 °F 44.6 °F 100% 30.12 in 1.5 mi NE 4.6 mph - N/A   Overcast
7:00 AM 43 °F - 43 °F 100% 30.14 in 1 mi NNE 4.6 mph - -   Mist
7:00 AM 42.8 °F 39.3 °F 42.8 °F 100% 30.14 in 1.0 mi North 5.8 mph - N/A   Overcast
8:00 AM 42.8 °F 38.6 °F 42.8 °F 100% 30.18 in 1.0 mi NE 6.9 mph - N/A   Overcast
9:00 AM 41.0 °F 36.4 °F 41.0 °F 100% 30.19 in 1.0 mi NNE 6.9 mph - N/A   Overcast
10:00 AM 44.6 °F 42.2 °F 42.8 °F 93% 30.20 in 2.0 mi North 4.6 mph - N/A   Overcast
10:31 AM - - - N/A% - 6.0 mi NE 6.9 mph - N/A   Overcast
11:00 AM 42.8 °F 39.3 °F 42.8 °F 100% 30.21 in 15.0 mi NNE 5.8 mph - N/A   Mostly Cloudy
11:18 AM - - - N/A% - 15.0 mi NE 6.9 mph - N/A   Mostly Cloudy
12:00 PM 53.6 °F - 41.0 °F 62% 30.21 in 15.0 mi NE 6.9 mph 17.3 mph N/A   Mostly Cloudy
1:00 PM 55 °F - 41 °F 49% 30.21 in 15 mi ENE 8.1 mph - -   Scattered Clouds
1:00 PM 55.4 °F - 41.0 °F 58% 30.21 in 15.0 mi ENE 9.2 mph - N/A   Mostly Cloudy
2:00 PM 57.2 °F - 39.2 °F 51% 30.20 in 15.0 mi East 12.7 mph - N/A   Mostly Cloudy
3:00 PM 59.0 °F - 37.4 °F 45% 30.20 in 15.0 mi NE 9.2 mph - N/A   Mostly Cloudy
4:00 PM 59.0 °F - 33.8 °F 39% 30.19 in 15.0 mi ENE 11.5 mph - N/A   Mostly Cloudy
5:00 PM 59.0 °F - 32.0 °F 36% 30.20 in 15.0 mi ENE 6.9 mph 19.6 mph N/A   Mostly Cloudy
6:00 PM 59.0 °F - 30.2 °F 34% 30.20 in 15.0 mi ENE 10.4 mph - N/A   Mostly Cloudy
7:00 PM 57 °F - 31 °F 25% 30.21 in 15 mi East 9.2 mph - -   Overcast
7:00 PM 57.2 °F - 30.2 °F 36% 30.21 in 15.0 mi East 8.1 mph - N/A   Overcast
8:00 PM 55.4 °F - 32.0 °F 41% 30.21 in 15.0 mi ENE 5.8 mph - N/A   Overcast
9:00 PM 53.6 °F - 32.0 °F 44% 30.22 in 15.0 mi ENE 5.8 mph - N/A   Overcast
10:00 PM 51.8 °F - 32.0 °F 47% 30.22 in 15.0 mi NE 4.6 mph - N/A   Overcast
11:00 PM 46.4 °F 42.9 °F 32.0 °F 57% 30.24 in 15.0 mi East 6.9 mph - N/A   Overcast